sat.trackr.live / text

‹ back to catalog

GPS BIII-9 (PRN 20)

NORAD 67588 · 2026-017A

PAYLOAD ACTIVE UNKNOWN

§ Identity

Operator
Country
US
Launch date
2026-01-28
Launch site
AFETR
Launch vehicle
Mass (kg)
RCS (m²)

Purposes: nav

External: N2YO · Heavens-Above · Gunter

§ Orbital elements

Epoch: 2026-05-24T18:21:31.942656Z

Period
717.95 min
Inclination
55.0742°
Eccentricity
0.0022702
Mean motion
2.00571625 rev/d
Perigee alt
20,121.2 km
Apogee alt
20,241.8 km
Semi-major
26,559.6 km
B*
0.0000e+0
RAAN
89.6948°
Arg perigee
256.4817°
Mean anomaly
103.2392°
Rev number
43,114

§ Raw data

GPS BIII-9  (PRN 20)1 67588U 26017A   26144.76495304 -.00000008  00000+0  00000+0 0  99922 67588  55.0742  89.6948 0022702 256.4817 103.2392  2.00571625431140

JSON: /api/v1/satellites/67588 · /tle

For live sub-satellite position, see the globe view (requires WebGL).

§ Visibility from observer

Set your observer location to see the next 7 days of passes ≥ 10°. The values pass through the URL so the page stays shareable.

No JS? Fill the form by hand. The geolocation button needs JavaScript.